Time,TemperatureF,DewpointF,PressureIn,WindDirection,WindDirectionDegrees,WindSpeedMPH,WindSpeedGustMPH,Humidity,HourlyPrecipIn,Conditions,Clouds,dailyrainin,SolarRadiationWatts/m^2,SoftwareType,DateUTC
2013-10-27 00:00:00,36.4,30.5,30.04,NW,308,0.0,0.0,79,0.00,,---,0.00,0.00,VWS V14.01,2013-10-27 05:00:00,
2013-10-27 00:02:00,36.6,31.0,30.04,NW,308,0.0,0.0,80,0.00,,---,0.00,0.00,VWS V14.01,2013-10-27 05:02:00,
2013-10-27 00:07:00,36.6,30.7,30.04,NW,308,0.0,0.0,79,0.00,,---,0.00,0.00,VWS V14.01,2013-10-27 05:07:00,
2013-10-27 00:12:00,36.9,31.6,30.03,NW,308,0.0,0.0,81,0.00,,---,0.00,0.00,VWS V14.01,2013-10-27 05:12:00,
2013-10-27 00:17:00,36.6,30.7,30.03,NW,308,0.0,0.0,79,0.00,,---,0.00,0.00,VWS V14.01,2013-10-27 05:17:00,
2013-10-27 00:22:00,36.7,30.5,30.03,NW,308,0.0,0.0,78,0.00,,---,0.00,0.00,VWS V14.01,2013-10-27 05:22:00,
2013-10-27 00:27:00,36.6,30.7,30.03,NW,308,0.0,0.0,79,0.00,,---,0.00,0.00,VWS V14.01,2013-10-27 05:27:00,
2013-10-27 00:32:00,36.5,30.6,30.03,NW,308,0.0,0.0,79,0.00,,---,0.00,0.00,VWS V14.01,2013-10-27 05:32:00,
2013-10-27 00:37:00,36.3,30.4,30.02,NW,308,0.0,0.0,79,0.00,,---,0.00,0.00,VWS V14.01,2013-10-27 05:37:00,
2013-10-27 00:42:00,35.9,30.0,30.03,NW,308,0.0,0.0,79,0.00,,---,0.00,0.00,VWS V14.01,2013-10-27 05:42:00,
2013-10-27 00:47:00,35.6,29.7,30.03,NW,308,0.0,0.0,79,0.00,,---,0.00,0.00,VWS V14.01,2013-10-27 05:47:00,
2013-10-27 00:52:00,35.1,29.6,30.03,NW,308,0.0,0.0,80,0.00,,---,0.00,0.00,VWS V14.01,2013-10-27 05:52:00,
2013-10-27 00:57:00,34.6,29.4,30.02,NW,308,0.0,0.0,81,0.00,,---,0.00,0.00,VWS V14.01,2013-10-27 05:57:00,
2013-10-27 01:00:00,34.4,29.5,30.02,NW,308,0.0,0.0,82,0.00,,---,0.00,0.00,VWS V14.01,2013-10-27 06:00:00,
2013-10-27 01:02:00,34.1,29.2,30.02,NW,308,0.0,0.0,82,0.00,,---,0.00,0.00,VWS V14.01,2013-10-27 06:02:00,
2013-10-27 01:07:00,33.5,29.2,30.02,NW,308,0.0,0.0,84,0.00,,---,0.00,0.00,VWS V14.01,2013-10-27 06:07:00,
2013-10-27 01:12:00,33.4,29.1,30.02,NW,308,0.0,0.0,84,0.00,,---,0.00,0.00,VWS V14.01,2013-10-27 06:12:00,
2013-10-27 01:17:00,33.2,28.9,30.02,NW,308,0.0,0.0,84,0.00,,---,0.00,0.00,VWS V14.01,2013-10-27 06:17:00,
2013-10-27 01:22:00,32.6,28.3,30.02,NW,308,0.0,0.0,84,0.00,,---,0.00,0.00,VWS V14.01,2013-10-27 06:22:00,
2013-10-27 01:27:00,32.5,28.5,30.02,NW,308,0.0,0.0,85,0.00,,---,0.00,0.00,VWS V14.01,2013-10-27 06:27:00,
2013-10-27 01:32:00,32.5,28.5,30.02,NW,308,0.0,0.0,85,0.00,,---,0.00,0.00,VWS V14.01,2013-10-27 06:32:00,
2013-10-27 01:37:00,31.7,27.7,30.01,NW,308,0.0,0.0,85,0.00,,---,0.00,0.00,VWS V14.01,2013-10-27 06:37:00,
2013-10-27 01:42:00,31.2,27.8,30.01,NW,308,0.0,0.0,87,0.00,,---,0.00,0.00,VWS V14.01,2013-10-27 06:42:00,
2013-10-27 01:47:00,31.2,28.1,30.02,NW,308,0.0,0.0,88,0.00,,---,0.00,0.00,VWS V14.01,2013-10-27 06:47:00,
2013-10-27 01:52:00,31.4,28.3,30.01,NW,308,0.0,0.0,88,0.00,,---,0.00,0.00,VWS V14.01,2013-10-27 06:52:00,
2013-10-27 01:57:00,31.2,28.1,30.02,NW,308,0.0,0.0,88,0.00,,---,0.00,0.00,VWS V14.01,2013-10-27 06:57:00,
2013-10-27 02:00:00,31.2,28.1,30.01,NW,308,0.0,0.0,88,0.00,,---,0.00,0.00,VWS V14.01,2013-10-27 07:00:00,
2013-10-27 02:02:00,31.1,28.0,30.01,NW,308,0.0,0.0,88,0.00,,---,0.00,0.00,VWS V14.01,2013-10-27 07:02:00,
2013-10-27 02:07:00,31.0,27.9,30.01,NW,308,0.0,0.0,88,0.00,,---,0.00,0.00,VWS V14.01,2013-10-27 07:07:00,
2013-10-27 02:12:00,31.0,28.1,30.01,NW,308,0.0,0.0,89,0.00,,---,0.00,0.00,VWS V14.01,2013-10-27 07:12:00,
2013-10-27 02:17:00,30.7,28.1,30.01,NW,308,0.0,0.0,90,0.00,,---,0.00,0.00,VWS V14.01,2013-10-27 07:17:00,
2013-10-27 02:22:00,30.3,27.7,30.01,NW,308,0.0,0.0,90,0.00,,---,0.00,0.00,VWS V14.01,2013-10-27 07:22:00,
2013-10-27 02:27:00,30.2,27.9,30.01,NW,308,0.0,0.0,91,0.00,,---,0.00,0.00,VWS V14.01,2013-10-27 07:27:00,
2013-10-27 02:32:00,29.9,27.6,30.01,NW,308,0.0,0.0,91,0.00,,---,0.00,0.00,VWS V14.01,2013-10-27 07:32:00,
2013-10-27 02:37:00,29.6,27.3,30.01,NW,308,0.0,0.0,91,0.00,,---,0.00,0.00,VWS V14.01,2013-10-27 07:37:00,
2013-10-27 02:42:00,29.5,27.2,30.01,NW,308,0.0,0.0,91,0.00,,---,0.00,0.00,VWS V14.01,2013-10-27 07:42:00,
2013-10-27 02:47:00,29.4,27.4,30.01,NW,308,0.0,0.0,92,0.00,,---,0.00,0.00,VWS V14.01,2013-10-27 07:47:00,
2013-10-27 02:52:00,29.4,27.4,30.01,NW,308,0.0,0.0,92,0.00,,---,0.00,0.00,VWS V14.01,2013-10-27 07:52:00,
2013-10-27 02:57:00,29.3,27.0,30.01,NW,308,0.0,0.0,91,0.00,,---,0.00,0.00,VWS V14.01,2013-10-27 07:57:00,
2013-10-27 03:00:00,29.2,27.2,30.01,NW,308,0.0,0.0,92,0.00,,---,0.00,0.00,VWS V14.01,2013-10-27 08:00:00,
2013-10-27 03:02:00,29.3,27.3,30.01,NW,308,0.0,0.0,92,0.00,,---,0.00,0.00,VWS V14.01,2013-10-27 08:02:00,
2013-10-27 03:07:00,29.6,27.6,30.01,NW,308,0.0,0.0,92,0.00,,---,0.00,0.00,VWS V14.01,2013-10-27 08:07:00,
2013-10-27 03:12:00,29.3,27.3,30.01,NW,308,0.0,0.0,92,0.00,,---,0.00,0.00,VWS V14.01,2013-10-27 08:12:00,
2013-10-27 03:17:00,29.3,27.3,30.00,NW,308,0.0,0.0,92,0.00,,---,0.00,0.00,VWS V14.01,2013-10-27 08:17:00,
2013-10-27 03:22:00,29.2,27.2,30.01,NW,308,1.0,1.0,92,0.00,,---,0.00,0.00,VWS V14.01,2013-10-27 08:22:00,
2013-10-27 03:27:00,28.6,26.6,30.00,NW,308,0.0,1.0,92,0.00,,---,0.00,0.00,VWS V14.01,2013-10-27 08:27:00,
2013-10-27 03:32:00,28.5,26.5,30.00,NW,308,0.0,1.0,92,0.00,,---,0.00,0.00,VWS V14.01,2013-10-27 08:32:00,
2013-10-27 03:37:00,28.6,26.6,30.00,NW,308,0.0,1.0,92,0.00,,---,0.00,0.00,VWS V14.01,2013-10-27 08:37:00,
2013-10-27 03:42:00,28.5,26.7,30.00,NW,308,0.0,1.0,93,0.00,,---,0.00,0.00,VWS V14.01,2013-10-27 08:42:00,
2013-10-27 03:47:00,28.5,26.7,30.00,NW,308,0.0,1.0,93,0.00,,---,0.00,0.00,VWS V14.01,2013-10-27 08:47:00,
2013-10-27 03:52:00,28.2,26.4,30.00,NW,308,0.0,1.0,93,0.00,,---,0.00,0.00,VWS V14.01,2013-10-27 08:52:00,
2013-10-27 03:57:00,28.1,26.3,29.99,NW,308,0.0,1.0,93,0.00,,---,0.00,0.00,VWS V14.01,2013-10-27 08:57:00,
2013-10-27 04:00:00,29.2,27.2,30.01,NW,308,0.0,0.0,92,0.00,,---,0.00,0.00,VWS V14.01,2013-10-27 09:00:00,
2013-10-27 04:02:00,28.3,26.5,29.99,NW,308,0.0,0.0,93,0.00,,---,0.00,0.00,VWS V14.01,2013-10-27 09:02:00,
2013-10-27 04:07:00,28.4,26.6,29.99,NW,308,0.0,1.0,93,0.00,,---,0.00,0.00,VWS V14.01,2013-10-27 09:07:00,
2013-10-27 04:12:00,28.2,26.4,29.99,NW,308,0.0,1.0,93,0.00,,---,0.00,0.00,VWS V14.01,2013-10-27 09:12:00,
2013-10-27 04:17:00,28.0,26.2,29.99,NW,308,0.0,1.0,93,0.00,,---,0.00,0.00,VWS V14.01,2013-10-27 09:17:00,
2013-10-27 04:22:00,28.0,26.2,29.99,NW,308,0.0,1.0,93,0.00,,---,0.00,0.00,VWS V14.01,2013-10-27 09:22:00,
2013-10-27 04:27:00,27.7,25.9,29.99,NW,308,0.0,1.0,93,0.00,,---,0.00,0.00,VWS V14.01,2013-10-27 09:27:00,
2013-10-27 04:32:00,27.7,25.9,29.99,NW,308,0.0,1.0,93,0.00,,---,0.00,0.00,VWS V14.01,2013-10-27 09:32:00,
2013-10-27 04:37:00,27.6,25.8,29.99,NW,308,0.0,1.0,93,0.00,,---,0.00,0.00,VWS V14.01,2013-10-27 09:37:00,
2013-10-27 04:42:00,27.5,25.8,29.99,NW,308,0.0,1.0,93,0.00,,---,0.00,0.00,VWS V14.01,2013-10-27 09:42:00,
2013-10-27 04:47:00,27.6,25.8,29.99,NW,308,0.0,1.0,93,0.00,,---,0.00,0.00,VWS V14.01,2013-10-27 09:47:00,
2013-10-27 04:52:00,27.6,25.8,29.99,NW,308,0.0,1.0,93,0.00,,---,0.00,0.00,VWS V14.01,2013-10-27 09:52:00,
2013-10-27 04:57:00,28.1,26.6,29.99,NW,308,0.0,1.0,94,0.00,,---,0.00,0.00,VWS V14.01,2013-10-27 09:57:00,
2013-10-27 05:00:00,28.1,26.3,29.99,NW,308,0.0,1.0,93,0.00,,---,0.00,0.00,VWS V14.01,2013-10-27 10:00:00,
2013-10-27 05:02:00,27.9,26.1,29.99,NW,308,0.0,0.0,93,0.00,,---,0.00,0.00,VWS V14.01,2013-10-27 10:02:00,
2013-10-27 05:07:00,27.8,26.0,29.99,NW,308,0.0,0.0,93,0.00,,---,0.00,0.00,VWS V14.01,2013-10-27 10:07:00,
2013-10-27 05:12:00,27.8,26.0,29.99,NW,308,0.0,0.0,93,0.00,,---,0.00,0.00,VWS V14.01,2013-10-27 10:12:00,
2013-10-27 05:17:00,27.5,25.8,29.99,NW,308,0.0,0.0,93,0.00,,---,0.00,0.00,VWS V14.01,2013-10-27 10:17:00,
2013-10-27 05:21:00,27.6,25.8,29.98,NW,308,0.0,0.0,93,0.00,,---,0.00,0.00,VWS V14.01,2013-10-27 10:21:00,
2013-10-27 05:26:00,27.6,25.8,29.99,NW,308,0.0,0.0,93,0.00,,---,0.00,0.00,VWS V14.01,2013-10-27 10:26:00,
2013-10-27 05:31:00,27.3,25.5,29.99,NW,308,0.0,0.0,93,0.00,,---,0.00,0.00,VWS V14.01,2013-10-27 10:31:00,
2013-10-27 05:36:00,26.9,25.1,29.99,NW,308,1.0,1.0,93,0.00,,---,0.00,0.00,VWS V14.01,2013-10-27 10:36:00,
2013-10-27 05:41:00,27.0,25.2,29.99,NW,308,0.0,1.0,93,0.00,,---,0.00,0.00,VWS V14.01,2013-10-27 10:41:00,
2013-10-27 05:46:00,27.0,25.2,29.99,NW,308,0.0,1.0,93,0.00,,---,0.00,0.00,VWS V14.01,2013-10-27 10:46:00,
2013-10-27 05:51:00,26.8,25.0,29.99,NW,308,0.0,1.0,93,0.00,,---,0.00,0.00,VWS V14.01,2013-10-27 10:51:00,
2013-10-27 05:56:00,26.6,24.9,29.99,NW,308,0.0,1.0,93,0.00,,---,0.00,0.00,VWS V14.01,2013-10-27 10:56:00,
2013-10-27 06:00:00,26.6,24.9,29.99,NW,308,0.0,1.0,93,0.00,,---,0.00,0.00,VWS V14.01,2013-10-27 11:00:00,
2013-10-27 06:01:00,26.6,24.9,29.99,NW,308,0.0,1.0,93,0.00,,---,0.00,0.00,VWS V14.01,2013-10-27 11:01:00,
2013-10-27 06:06:00,26.5,24.8,29.99,NW,308,0.0,1.0,93,0.00,,---,0.00,0.00,VWS V14.01,2013-10-27 11:06:00,
2013-10-27 06:11:00,26.6,24.9,29.99,NW,308,0.0,1.0,93,0.00,,---,0.00,0.00,VWS V14.01,2013-10-27 11:11:00,
2013-10-27 06:16:00,26.4,24.6,30.00,NW,308,0.0,1.0,93,0.00,,---,0.00,0.00,VWS V14.01,2013-10-27 11:16:00,
2013-10-27 06:21:00,26.3,24.6,29.99,NW,308,2.0,2.0,93,0.00,,---,0.00,0.00,VWS V14.01,2013-10-27 11:21:00,
2013-10-27 06:26:00,26.3,24.6,29.99,NW,308,0.0,2.0,93,0.00,,---,0.00,0.00,VWS V14.01,2013-10-27 11:26:00,
2013-10-27 06:31:00,26.5,25.0,29.99,NW,308,0.0,2.0,94,0.00,,---,0.00,0.00,VWS V14.01,2013-10-27 11:31:00,
2013-10-27 06:36:00,26.6,25.1,29.99,NW,308,0.0,2.0,94,0.00,,---,0.00,0.00,VWS V14.01,2013-10-27 11:36:00,
2013-10-27 06:41:00,26.6,25.1,29.99,NW,308,0.0,2.0,94,0.00,,---,0.00,0.00,VWS V14.01,2013-10-27 11:41:00,
2013-10-27 06:46:00,26.7,25.2,29.99,NW,308,0.0,2.0,94,0.00,,---,0.00,0.00,VWS V14.01,2013-10-27 11:46:00,
2013-10-27 06:51:00,26.6,24.9,29.99,NW,308,0.0,2.0,93,0.00,,---,0.00,0.00,VWS V14.01,2013-10-27 11:51:00,
2013-10-27 06:56:00,26.3,24.6,29.99,NW,308,0.0,2.0,93,0.00,,---,0.00,0.00,VWS V14.01,2013-10-27 11:56:00,
2013-10-27 07:00:00,26.2,24.5,29.99,NW,308,0.0,2.0,93,0.00,,---,0.00,0.00,VWS V14.01,2013-10-27 12:00:00,
2013-10-27 07:01:00,26.2,24.5,29.99,NW,308,0.0,0.0,93,0.00,,---,0.00,0.00,VWS V14.01,2013-10-27 12:01:00,
2013-10-27 07:06:00,26.0,24.3,29.99,NW,308,0.0,1.0,93,0.00,,---,0.00,0.00,VWS V14.01,2013-10-27 12:06:00,
2013-10-27 07:11:00,26.1,24.6,29.99,NW,308,0.0,1.0,94,0.00,,---,0.00,0.00,VWS V14.01,2013-10-27 12:11:00,
2013-10-27 07:16:00,26.2,24.7,29.99,NW,308,0.0,1.0,94,0.00,,---,0.00,0.00,VWS V14.01,2013-10-27 12:16:00,
2013-10-27 07:21:00,26.1,24.6,29.99,NW,308,0.0,1.0,94,0.00,,---,0.00,0.00,VWS V14.01,2013-10-27 12:21:00,
2013-10-27 07:26:00,26.1,24.6,29.99,NW,308,0.0,1.0,94,0.00,,---,0.00,0.00,VWS V14.01,2013-10-27 12:26:00,
2013-10-27 07:31:00,26.1,24.6,29.99,NW,308,0.0,1.0,94,0.00,,---,0.00,5.00,VWS V14.01,2013-10-27 12:31:00,
2013-10-27 07:36:00,26.1,24.6,29.99,NW,308,0.0,1.0,94,0.00,,---,0.00,7.00,VWS V14.01,2013-10-27 12:36:00,
2013-10-27 07:41:00,26.1,24.6,29.99,NW,308,0.0,1.0,94,0.00,,---,0.00,11.00,VWS V14.01,2013-10-27 12:41:00,
2013-10-27 07:46:00,26.8,25.3,29.99,NW,308,0.0,1.0,94,0.00,,---,0.00,14.00,VWS V14.01,2013-10-27 12:46:00,
2013-10-27 07:51:00,27.2,25.7,29.99,NW,308,0.0,1.0,94,0.00,,---,0.00,18.00,VWS V14.01,2013-10-27 12:51:00,
2013-10-27 07:56:00,27.2,25.7,29.99,NW,308,0.0,1.0,94,0.00,,---,0.00,23.00,VWS V14.01,2013-10-27 12:56:00,
2013-10-27 08:00:00,27.2,25.7,29.99,NW,308,0.0,1.0,94,0.00,,---,0.00,25.00,VWS V14.01,2013-10-27 13:00:00,
2013-10-27 08:01:00,27.2,25.7,29.99,NW,308,0.0,0.0,94,0.00,,---,0.00,25.00,VWS V14.01,2013-10-27 13:01:00,
2013-10-27 08:06:00,27.9,26.4,30.00,NW,308,0.0,0.0,94,0.00,,---,0.00,26.00,VWS V14.01,2013-10-27 13:06:00,
2013-10-27 08:11:00,28.8,27.5,30.00,NW,308,0.0,0.0,95,0.00,,---,0.00,25.00,VWS V14.01,2013-10-27 13:11:00,
2013-10-27 08:16:00,29.3,27.8,30.00,NW,308,0.0,0.0,94,0.00,,---,0.00,28.00,VWS V14.01,2013-10-27 13:16:00,
2013-10-27 08:21:00,29.7,28.2,29.99,NW,308,0.0,0.0,94,0.00,,---,0.00,39.00,VWS V14.01,2013-10-27 13:21:00,
2013-10-27 08:26:00,30.1,28.6,30.00,NW,308,0.0,0.0,94,0.00,,---,0.00,40.00,VWS V14.01,2013-10-27 13:26:00,
2013-10-27 08:31:00,30.3,28.5,30.00,NW,308,0.0,1.0,93,0.00,,---,0.00,49.00,VWS V14.01,2013-10-27 13:31:00,
2013-10-27 08:36:00,30.9,29.1,30.00,NW,308,0.0,1.0,93,0.00,,---,0.00,46.00,VWS V14.01,2013-10-27 13:36:00,
2013-10-27 08:41:00,31.6,29.8,30.00,NW,308,0.0,1.0,93,0.00,,---,0.00,49.00,VWS V14.01,2013-10-27 13:41:00,
2013-10-27 08:46:00,32.3,30.2,30.00,NW,308,0.0,1.0,92,0.00,,---,0.00,47.00,VWS V14.01,2013-10-27 13:46:00,
2013-10-27 08:51:00,32.6,30.3,30.00,NW,308,0.0,1.0,91,0.00,,---,0.00,70.00,VWS V14.01,2013-10-27 13:51:00,
2013-10-27 08:56:00,33.1,30.8,30.00,NW,307,0.0,2.0,91,0.00,,---,0.00,67.00,VWS V14.01,2013-10-27 13:56:00,
2013-10-27 09:00:00,33.3,30.7,30.00,SW,228,2.0,3.0,90,0.00,,---,0.00,62.00,VWS V14.01,2013-10-27 14:00:00,
2013-10-27 09:01:00,33.5,30.9,30.00,SW,214,3.0,3.0,90,0.00,,---,0.00,62.00,VWS V14.01,2013-10-27 14:01:00,
2013-10-27 09:06:00,33.8,31.2,30.00,WSW,238,1.0,3.0,90,0.00,,---,0.00,51.00,VWS V14.01,2013-10-27 14:06:00,
2013-10-27 09:11:00,34.3,31.4,30.00,SW,220,1.0,4.0,89,0.00,,---,0.00,53.00,VWS V14.01,2013-10-27 14:11:00,
2013-10-27 09:16:00,34.8,31.6,29.99,SSW,211,4.0,4.0,88,0.00,,---,0.00,54.00,VWS V14.01,2013-10-27 14:16:00,
2013-10-27 09:21:00,35.5,32.3,29.99,SSW,206,3.0,4.0,88,0.00,,---,0.00,53.00,VWS V14.01,2013-10-27 14:21:00,
2013-10-27 09:26:00,36.2,32.7,29.99,SSW,198,4.0,5.0,87,0.00,,---,0.00,51.00,VWS V14.01,2013-10-27 14:26:00,
2013-10-27 09:31:00,36.7,32.6,29.99,SSW,208,2.0,5.0,85,0.00,,---,0.00,54.00,VWS V14.01,2013-10-27 14:31:00,
2013-10-27 09:36:00,37.2,32.8,29.99,SW,232,2.0,5.0,84,0.00,,---,0.00,53.00,VWS V14.01,2013-10-27 14:36:00,
2013-10-27 09:41:00,37.7,33.0,29.99,SSW,202,4.0,5.0,83,0.00,,---,0.00,53.00,VWS V14.01,2013-10-27 14:41:00,
2013-10-27 09:46:00,38.3,33.3,29.99,SW,227,3.0,6.0,82,0.00,,---,0.00,54.00,VWS V14.01,2013-10-27 14:46:00,
2013-10-27 09:51:00,38.7,33.1,29.99,SSW,200,5.0,6.0,80,0.00,,---,0.00,54.00,VWS V14.01,2013-10-27 14:51:00,
2013-10-27 09:56:00,39.2,33.2,29.99,SSW,200,2.0,7.0,79,0.00,,---,0.00,58.00,VWS V14.01,2013-10-27 14:56:00,
2013-10-27 10:00:00,39.4,33.1,29.99,SSW,213,5.0,7.0,78,0.00,,---,0.00,62.00,VWS V14.01,2013-10-27 15:00:00,
2013-10-27 10:01:00,39.6,33.3,29.99,SW,225,3.0,5.0,78,0.00,,---,0.00,54.00,VWS V14.01,2013-10-27 15:01:00,
2013-10-27 10:06:00,40.0,33.4,29.99,SSW,199,6.0,7.0,77,0.00,,---,0.00,56.00,VWS V14.01,2013-10-27 15:06:00,
2013-10-27 10:11:00,40.3,33.0,30.00,SSW,199,7.0,7.0,75,0.00,,---,0.00,54.00,VWS V14.01,2013-10-27 15:11:00,
2013-10-27 10:16:00,40.5,33.2,29.99,SSW,198,5.0,8.0,75,0.00,,---,0.00,56.00,VWS V14.01,2013-10-27 15:16:00,
2013-10-27 10:21:00,40.9,32.9,29.99,SSW,199,4.0,9.0,73,0.00,,---,0.00,58.00,VWS V14.01,2013-10-27 15:21:00,
2013-10-27 10:26:00,41.3,33.7,29.99,SSW,211,5.0,9.0,74,0.00,,---,0.00,83.00,VWS V14.01,2013-10-27 15:26:00,
2013-10-27 10:31:00,41.8,33.1,29.99,SW,225,4.0,9.0,71,0.00,,---,0.00,179.00,VWS V14.01,2013-10-27 15:31:00,
2013-10-27 10:36:00,42.3,33.6,29.98,SW,233,7.0,9.0,71,0.00,,---,0.00,410.00,VWS V14.01,2013-10-27 15:36:00,
2013-10-27 10:41:00,42.5,33.1,29.98,SSW,208,5.0,9.0,69,0.00,,---,0.00,420.00,VWS V14.01,2013-10-27 15:41:00,
2013-10-27 10:46:00,43.4,33.6,29.98,SSW,213,3.0,9.0,68,0.00,,---,0.00,434.00,VWS V14.01,2013-10-27 15:46:00,
2013-10-27 10:51:00,43.8,33.2,29.98,SSW,196,6.0,9.0,66,0.00,,---,0.00,425.00,VWS V14.01,2013-10-27 15:51:00,
2013-10-27 10:56:00,44.0,33.4,29.98,SSW,200,7.0,9.0,66,0.00,,---,0.00,441.00,VWS V14.01,2013-10-27 15:56:00,
2013-10-27 11:00:00,44.1,33.1,29.98,SSW,205,8.0,9.0,65,0.00,,---,0.00,452.00,VWS V14.01,2013-10-27 16:00:00,
2013-10-27 11:01:00,44.3,32.9,29.98,SSW,211,6.0,10.0,64,0.00,,---,0.00,454.00,VWS V14.01,2013-10-27 16:01:00,
2013-10-27 11:06:00,45.0,33.2,29.98,SW,221,5.0,11.0,63,0.00,,---,0.00,455.00,VWS V14.01,2013-10-27 16:06:00,
2013-10-27 11:11:00,45.4,33.2,29.97,SSW,196,7.0,11.0,62,0.00,,---,0.00,494.00,VWS V14.01,2013-10-27 16:11:00,
2013-10-27 11:16:00,45.5,32.8,29.97,SSW,206,5.0,11.0,61,0.00,,---,0.00,504.00,VWS V14.01,2013-10-27 16:16:00,
2013-10-27 11:21:00,45.6,33.3,29.97,SSW,194,7.0,11.0,62,0.00,,---,0.00,515.00,VWS V14.01,2013-10-27 16:21:00,
2013-10-27 11:26:00,46.1,33.8,29.97,SSW,194,7.0,11.0,62,0.00,,---,0.00,527.00,VWS V14.01,2013-10-27 16:26:00,
2013-10-27 11:31:00,46.7,33.6,29.97,SW,223,6.0,11.0,60,0.00,,---,0.00,534.00,VWS V14.01,2013-10-27 16:31:00,
2013-10-27 11:36:00,46.9,32.9,29.97,SSW,205,7.0,11.0,58,0.00,,---,0.00,538.00,VWS V14.01,2013-10-27 16:36:00,
2013-10-27 11:41:00,47.6,34.4,29.96,SSW,205,6.0,11.0,60,0.00,,---,0.00,543.00,VWS V14.01,2013-10-27 16:41:00,
2013-10-27 11:46:00,47.4,33.4,29.96,SW,235,6.0,11.0,58,0.00,,---,0.00,552.00,VWS V14.01,2013-10-27 16:46:00,
2013-10-27 11:51:00,47.8,33.3,29.96,SSW,209,7.0,13.0,57,0.00,,---,0.00,552.00,VWS V14.01,2013-10-27 16:51:00,
2013-10-27 11:56:00,47.6,33.1,29.95,SW,216,8.0,13.0,57,0.00,,---,0.00,554.00,VWS V14.01,2013-10-27 16:56:00,
2013-10-27 12:00:00,47.9,33.4,29.95,SSW,211,7.0,13.0,57,0.00,,---,0.00,548.00,VWS V14.01,2013-10-27 17:00:00,
2013-10-27 12:01:00,48.3,33.8,29.95,SSW,204,8.0,8.0,57,0.00,,---,0.00,555.00,VWS V14.01,2013-10-27 17:01:00,
2013-10-27 12:06:00,48.2,33.3,29.95,SW,221,5.0,10.0,56,0.00,,---,0.00,564.00,VWS V14.01,2013-10-27 17:06:00,
2013-10-27 12:11:00,48.2,32.8,29.95,SW,228,4.0,12.0,55,0.00,,---,0.00,568.00,VWS V14.01,2013-10-27 17:11:00,
2013-10-27 12:16:00,48.8,32.9,29.95,SSW,199,4.0,12.0,54,0.00,,---,0.00,570.00,VWS V14.01,2013-10-27 17:16:00,
2013-10-27 12:21:00,49.1,34.1,29.95,SW,221,5.0,12.0,56,0.00,,---,0.00,573.00,VWS V14.01,2013-10-27 17:21:00,
2013-10-27 12:26:00,49.5,33.6,29.94,SSW,203,10.0,12.0,54,0.00,,---,0.00,575.00,VWS V14.01,2013-10-27 17:26:00,
2013-10-27 12:31:00,49.5,34.0,29.94,SSW,201,8.0,12.0,55,0.00,,---,0.00,577.00,VWS V14.01,2013-10-27 17:31:00,
2013-10-27 12:36:00,49.4,32.5,29.94,SSW,207,8.0,12.0,52,0.00,,---,0.00,578.00,VWS V14.01,2013-10-27 17:36:00,
2013-10-27 12:41:00,49.7,33.3,29.94,SW,230,2.0,12.0,53,0.00,,---,0.00,578.00,VWS V14.01,2013-10-27 17:41:00,
2013-10-27 12:46:00,50.1,33.7,29.93,SSW,202,9.0,12.0,53,0.00,,---,0.00,580.00,VWS V14.01,2013-10-27 17:46:00,
2013-10-27 12:51:00,50.3,33.8,29.93,SSW,211,5.0,12.0,53,0.00,,---,0.00,577.00,VWS V14.01,2013-10-27 17:51:00,
2013-10-27 12:56:00,50.3,32.9,29.92,SW,223,5.0,12.0,51,0.00,,---,0.00,578.00,VWS V14.01,2013-10-27 17:56:00,
2013-10-27 13:00:00,50.5,33.5,29.92,SSW,201,7.0,12.0,52,0.00,,---,0.00,578.00,VWS V14.01,2013-10-27 18:00:00,
2013-10-27 13:01:00,50.6,34.1,29.92,SSW,196,6.0,8.0,53,0.00,,---,0.00,578.00,VWS V14.01,2013-10-27 18:01:00,
2013-10-27 13:06:00,50.6,33.6,29.92,South,181,6.0,9.0,52,0.00,,---,0.00,577.00,VWS V14.01,2013-10-27 18:06:00,
2013-10-27 13:11:00,50.5,33.1,29.91,WSW,245,6.0,9.0,51,0.00,,---,0.00,575.00,VWS V14.01,2013-10-27 18:11:00,
2013-10-27 13:16:00,50.6,32.7,29.91,SSW,211,7.0,11.0,50,0.00,,---,0.00,573.00,VWS V14.01,2013-10-27 18:16:00,
2013-10-27 13:21:00,51.2,33.2,29.91,SW,217,5.0,11.0,50,0.00,,---,0.00,571.00,VWS V14.01,2013-10-27 18:21:00,
2013-10-27 13:26:00,51.0,33.5,29.91,SSW,213,7.0,11.0,51,0.00,,---,0.00,570.00,VWS V14.01,2013-10-27 18:26:00,
2013-10-27 13:31:00,51.3,33.3,29.90,SSW,203,5.0,11.0,50,0.00,,---,0.00,564.00,VWS V14.01,2013-10-27 18:31:00,
2013-10-27 13:36:00,51.7,33.7,29.90,SSW,200,6.0,11.0,50,0.00,,---,0.00,559.00,VWS V14.01,2013-10-27 18:36:00,
2013-10-27 13:41:00,52.0,33.5,29.90,SSW,201,5.0,11.0,49,0.00,,---,0.00,559.00,VWS V14.01,2013-10-27 18:41:00,
2013-10-27 13:46:00,51.8,33.3,29.90,SSW,194,11.0,11.0,49,0.00,,---,0.00,554.00,VWS V14.01,2013-10-27 18:46:00,
2013-10-27 13:51:00,52.3,33.7,29.89,WSW,242,6.0,11.0,49,0.00,,---,0.00,547.00,VWS V14.01,2013-10-27 18:51:00,
2013-10-27 13:56:00,52.4,33.8,29.89,SSW,207,8.0,11.0,49,0.00,,---,0.00,541.00,VWS V14.01,2013-10-27 18:56:00,
2013-10-27 14:00:00,52.3,33.2,29.89,SSW,213,5.0,11.0,48,0.00,,---,0.00,538.00,VWS V14.01,2013-10-27 19:00:00,
2013-10-27 14:01:00,52.6,34.0,29.89,SW,224,7.0,9.0,49,0.00,,---,0.00,534.00,VWS V14.01,2013-10-27 19:01:00,
2013-10-27 14:06:00,52.4,33.3,29.89,SSW,197,7.0,11.0,48,0.00,,---,0.00,527.00,VWS V14.01,2013-10-27 19:06:00,
2013-10-27 14:11:00,52.7,33.6,29.89,SSW,212,6.0,11.0,48,0.00,,---,0.00,483.00,VWS V14.01,2013-10-27 19:11:00,
2013-10-27 14:15:00,53.0,33.8,29.89,SSW,194,6.0,11.0,48,0.00,,---,0.00,520.00,VWS V14.01,2013-10-27 19:15:00,
2013-10-27 14:20:00,52.8,33.7,29.88,South,185,7.0,11.0,48,0.00,,---,0.00,492.00,VWS V14.01,2013-10-27 19:20:00,
2013-10-27 14:25:00,53.3,33.6,29.89,SSW,212,5.0,11.0,47,0.00,,---,0.00,513.00,VWS V14.01,2013-10-27 19:25:00,
2013-10-27 14:30:00,53.5,33.2,29.88,SW,216,3.0,11.0,46,0.00,,---,0.00,499.00,VWS V14.01,2013-10-27 19:30:00,
2013-10-27 14:35:00,53.0,32.8,29.88,SSW,198,4.0,11.0,46,0.00,,---,0.00,487.00,VWS V14.01,2013-10-27 19:35:00,
2013-10-27 14:40:00,53.5,33.8,29.88,SSW,200,8.0,11.0,47,0.00,,---,0.00,475.00,VWS V14.01,2013-10-27 19:40:00,
2013-10-27 14:45:00,53.8,34.1,29.88,SSW,205,6.0,11.0,47,0.00,,---,0.00,464.00,VWS V14.01,2013-10-27 19:45:00,
2013-10-27 14:50:00,53.8,32.4,29.89,SW,235,5.0,11.0,44,0.00,,---,0.00,459.00,VWS V14.01,2013-10-27 19:50:00,
2013-10-27 14:55:00,53.6,31.7,29.88,SSW,204,7.0,11.0,43,0.00,,---,0.00,455.00,VWS V14.01,2013-10-27 19:55:00,
2013-10-27 15:00:00,53.7,32.3,29.88,SSW,202,8.0,9.0,44,0.00,,---,0.00,432.00,VWS V14.01,2013-10-27 20:00:00,
2013-10-27 15:05:00,53.8,33.0,29.88,SSW,211,6.0,10.0,45,0.00,,---,0.00,425.00,VWS V14.01,2013-10-27 20:05:00,
2013-10-27 15:51:00,54.7,33.8,29.87,SSW,210,6.0,10.0,45,0.00,,---,0.00,313.00,VWS V14.01,2013-10-27 20:51:00,
2013-10-27 15:56:00,54.4,31.8,29.86,SSW,192,7.0,10.0,42,0.00,,---,0.00,301.00,VWS V14.01,2013-10-27 20:56:00,
2013-10-27 16:00:00,54.3,31.7,29.86,SW,219,5.0,10.0,42,0.00,,---,0.00,294.00,VWS V14.01,2013-10-27 21:00:00,
2013-10-27 16:01:00,54.4,33.0,29.86,WSW,246,7.0,9.0,44,0.00,,---,0.00,285.00,VWS V14.01,2013-10-27 21:01:00,
2013-10-27 16:06:00,54.4,32.4,29.87,SSW,198,7.0,10.0,43,0.00,,---,0.00,269.00,VWS V14.01,2013-10-27 21:06:00,
2013-10-27 16:11:00,54.4,32.4,29.87,SSW,201,5.0,10.0,43,0.00,,---,0.00,199.00,VWS V14.01,2013-10-27 21:11:00,
2013-10-27 16:16:00,54.2,32.2,29.87,SSW,202,7.0,10.0,43,0.00,,---,0.00,241.00,VWS V14.01,2013-10-27 21:16:00,
2013-10-27 16:21:00,54.0,32.6,29.86,SW,219,7.0,10.0,44,0.00,,---,0.00,207.00,VWS V14.01,2013-10-27 21:21:00,
2013-10-27 16:26:00,54.1,32.7,29.86,South,188,4.0,10.0,44,0.00,,---,0.00,153.00,VWS V14.01,2013-10-27 21:26:00,
2013-10-27 16:31:00,54.1,32.1,29.86,SW,225,5.0,10.0,43,0.00,,---,0.00,156.00,VWS V14.01,2013-10-27 21:31:00,
2013-10-27 16:36:00,54.1,32.7,29.86,SSW,209,4.0,10.0,44,0.00,,---,0.00,137.00,VWS V14.01,2013-10-27 21:36:00,
2013-10-27 16:41:00,54.1,33.2,29.86,SSW,201,5.0,10.0,45,0.00,,---,0.00,72.00,VWS V14.01,2013-10-27 21:41:00,
2013-10-27 16:46:00,54.0,33.2,29.87,SSW,201,5.0,10.0,45,0.00,,---,0.00,105.00,VWS V14.01,2013-10-27 21:46:00,
2013-10-27 16:51:00,53.9,32.5,29.87,SSW,202,1.0,10.0,44,0.00,,---,0.00,121.00,VWS V14.01,2013-10-27 21:51:00,
2013-10-27 16:56:00,53.8,32.4,29.87,SSW,198,7.0,10.0,44,0.00,,---,0.00,100.00,VWS V14.01,2013-10-27 21:56:00,
2013-10-27 17:00:00,53.8,32.4,29.87,SSW,211,3.0,10.0,44,0.00,,---,0.00,77.00,VWS V14.01,2013-10-27 22:00:00,
2013-10-27 17:01:00,53.7,32.3,29.87,SSW,208,4.0,4.0,44,0.00,,---,0.00,88.00,VWS V14.01,2013-10-27 22:01:00,
2013-10-27 17:06:00,53.6,32.8,29.87,SSW,201,2.0,6.0,45,0.00,,---,0.00,74.00,VWS V14.01,2013-10-27 22:06:00,
2013-10-27 17:11:00,53.5,32.7,29.87,SSW,206,3.0,6.0,45,0.00,,---,0.00,62.00,VWS V14.01,2013-10-27 22:11:00,
2013-10-27 17:16:00,53.4,32.6,29.87,SSW,206,1.0,6.0,45,0.00,,---,0.00,49.00,VWS V14.01,2013-10-27 22:16:00,
2013-10-27 17:21:00,53.2,32.4,29.87,SW,232,3.0,6.0,45,0.00,,---,0.00,39.00,VWS V14.01,2013-10-27 22:21:00,
2013-10-27 17:26:00,53.0,32.8,29.88,SW,222,3.0,6.0,46,0.00,,---,0.00,25.00,VWS V14.01,2013-10-27 22:26:00,
2013-10-27 17:31:00,52.5,32.9,29.88,SW,219,1.0,6.0,47,0.00,,---,0.00,18.00,VWS V14.01,2013-10-27 22:31:00,
2013-10-27 17:36:00,51.9,32.8,29.88,SW,219,1.0,6.0,48,0.00,,---,0.00,14.00,VWS V14.01,2013-10-27 22:36:00,
2013-10-27 17:41:00,51.4,32.4,29.88,SW,219,0.0,6.0,48,0.00,,---,0.00,12.00,VWS V14.01,2013-10-27 22:41:00,
2013-10-27 17:46:00,51.2,32.7,29.88,SW,219,1.0,6.0,49,0.00,,---,0.00,11.00,VWS V14.01,2013-10-27 22:46:00,
2013-10-27 17:51:00,50.5,32.6,29.88,SW,219,2.0,6.0,50,0.00,,---,0.00,7.00,VWS V14.01,2013-10-27 22:51:00,
2013-10-27 17:56:00,50.1,32.2,29.88,SW,219,0.0,6.0,50,0.00,,---,0.00,5.00,VWS V14.01,2013-10-27 22:56:00,
2013-10-27 18:00:00,50.0,32.1,29.88,SW,219,0.0,6.0,50,0.00,,---,0.00,0.00,VWS V14.01,2013-10-27 23:00:00,
2013-10-27 18:01:00,49.8,31.9,29.88,SW,219,0.0,0.0,50,0.00,,---,0.00,0.00,VWS V14.01,2013-10-27 23:01:00,
2013-10-27 18:06:00,49.5,33.1,29.88,SW,219,2.0,2.0,53,0.00,,---,0.00,0.00,VWS V14.01,2013-10-27 23:06:00,
2013-10-27 18:11:00,48.5,32.6,29.88,SW,219,2.0,3.0,54,0.00,,---,0.00,0.00,VWS V14.01,2013-10-27 23:11:00,
2013-10-27 18:16:00,48.4,32.5,29.88,SW,219,1.0,3.0,54,0.00,,---,0.00,0.00,VWS V14.01,2013-10-27 23:16:00,
2013-10-27 18:21:00,48.3,32.4,29.89,SW,219,0.0,3.0,54,0.00,,---,0.00,0.00,VWS V14.01,2013-10-27 23:21:00,
2013-10-27 18:26:00,48.2,31.9,29.89,SW,219,0.0,3.0,53,0.00,,---,0.00,0.00,VWS V14.01,2013-10-27 23:26:00,
2013-10-27 18:31:00,48.1,31.8,29.89,SW,219,0.0,3.0,53,0.00,,---,0.00,0.00,VWS V14.01,2013-10-27 23:31:00,
2013-10-27 18:36:00,47.8,32.0,29.89,SW,219,0.0,3.0,54,0.00,,---,0.00,0.00,VWS V14.01,2013-10-27 23:36:00,
2013-10-27 18:41:00,47.4,31.6,29.90,SW,219,0.0,3.0,54,0.00,,---,0.00,0.00,VWS V14.01,2013-10-27 23:41:00,
2013-10-27 18:46:00,46.9,31.6,29.90,SW,219,0.0,3.0,55,0.00,,---,0.00,0.00,VWS V14.01,2013-10-27 23:46:00,
2013-10-27 18:51:00,46.6,31.8,29.90,SW,219,0.0,3.0,56,0.00,,---,0.00,0.00,VWS V14.01,2013-10-27 23:51:00,
2013-10-27 18:56:00,46.0,31.6,29.90,SW,219,0.0,3.0,57,0.00,,---,0.00,0.00,VWS V14.01,2013-10-27 23:56:00,
2013-10-27 19:00:00,45.8,31.5,29.90,SW,219,0.0,3.0,57,0.00,,---,0.00,0.00,VWS V14.01,2013-10-28 00:00:00,
2013-10-27 19:01:00,45.8,31.5,29.91,SW,219,0.0,0.0,57,0.00,,---,0.00,0.00,VWS V14.01,2013-10-28 00:01:00,
2013-10-27 19:06:00,45.9,31.5,29.91,SW,219,0.0,0.0,57,0.00,,---,0.00,0.00,VWS V14.01,2013-10-28 00:06:00,
2013-10-27 19:11:00,46.0,31.6,29.91,SW,219,0.0,0.0,57,0.00,,---,0.00,0.00,VWS V14.01,2013-10-28 00:11:00,
2013-10-27 19:16:00,45.8,31.5,29.91,SW,219,0.0,0.0,57,0.00,,---,0.00,0.00,VWS V14.01,2013-10-28 00:16:00,
2013-10-27 19:21:00,45.6,31.7,29.92,SW,219,0.0,0.0,58,0.00,,---,0.00,0.00,VWS V14.01,2013-10-28 00:21:00,
2013-10-27 19:26:00,45.4,31.5,29.92,SW,219,0.0,0.0,58,0.00,,---,0.00,0.00,VWS V14.01,2013-10-28 00:26:00,
2013-10-27 19:31:00,45.1,31.6,29.93,SW,219,0.0,0.0,59,0.00,,---,0.00,0.00,VWS V14.01,2013-10-28 00:31:00,
2013-10-27 19:36:00,44.8,31.8,29.93,SW,219,0.0,0.0,60,0.00,,---,0.00,0.00,VWS V14.01,2013-10-28 00:36:00,
2013-10-27 19:41:00,44.4,32.2,29.94,SW,219,0.0,0.0,62,0.00,,---,0.00,0.00,VWS V14.01,2013-10-28 00:41:00,
2013-10-27 19:46:00,43.8,32.0,29.94,SW,219,0.0,0.0,63,0.00,,---,0.00,0.00,VWS V14.01,2013-10-28 00:46:00,
2013-10-27 19:51:00,43.0,31.7,29.94,SW,219,0.0,0.0,64,0.00,,---,0.00,0.00,VWS V14.01,2013-10-28 00:51:00,
2013-10-27 19:56:00,42.5,31.6,29.94,SW,219,0.0,0.0,65,0.00,,---,0.00,0.00,VWS V14.01,2013-10-28 00:56:00,
2013-10-27 20:00:00,42.4,31.5,29.95,SW,219,0.0,0.0,65,0.00,,---,0.00,0.00,VWS V14.01,2013-10-28 01:00:00,
2013-10-27 20:01:00,42.0,31.5,29.95,SW,219,0.0,0.0,66,0.00,,---,0.00,0.00,VWS V14.01,2013-10-28 01:01:00,
2013-10-27 20:06:00,41.7,31.2,29.95,SW,219,0.0,0.0,66,0.00,,---,0.00,0.00,VWS V14.01,2013-10-28 01:06:00,
2013-10-27 20:11:00,41.3,31.2,29.95,SW,219,0.0,0.0,67,0.00,,---,0.00,0.00,VWS V14.01,2013-10-28 01:11:00,
2013-10-27 20:16:00,41.0,31.3,29.96,SW,219,0.0,0.0,68,0.00,,---,0.00,0.00,VWS V14.01,2013-10-28 01:16:00,
2013-10-27 20:21:00,40.3,31.0,29.96,SW,219,0.0,0.0,69,0.00,,---,0.00,0.00,VWS V14.01,2013-10-28 01:21:00,
2013-10-27 20:26:00,39.5,30.5,29.96,SW,219,0.0,0.0,70,0.00,,---,0.00,0.00,VWS V14.01,2013-10-28 01:26:00,
2013-10-27 20:31:00,39.3,30.7,29.96,SW,219,0.0,0.0,71,0.00,,---,0.00,0.00,VWS V14.01,2013-10-28 01:31:00,
2013-10-27 20:36:00,39.3,31.0,29.96,SW,219,0.0,0.0,72,0.00,,---,0.00,0.00,VWS V14.01,2013-10-28 01:36:00,
2013-10-27 20:41:00,39.3,31.7,29.96,SW,219,0.0,0.0,74,0.00,,---,0.00,0.00,VWS V14.01,2013-10-28 01:41:00,
2013-10-27 20:46:00,39.3,31.7,29.96,SW,219,0.0,0.0,74,0.00,,---,0.00,0.00,VWS V14.01,2013-10-28 01:46:00,
2013-10-27 20:51:00,39.1,31.5,29.96,SW,219,0.0,0.0,74,0.00,,---,0.00,0.00,VWS V14.01,2013-10-28 01:51:00,
2013-10-27 20:56:00,38.8,31.2,29.96,SW,219,0.0,0.0,74,0.00,,---,0.00,0.00,VWS V14.01,2013-10-28 01:56:00,
2013-10-27 21:00:00,38.6,31.7,29.96,SW,219,0.0,0.0,76,0.00,,---,0.00,0.00,VWS V14.01,2013-10-28 02:00:00,
2013-10-27 21:01:00,38.6,32.0,29.96,SW,219,0.0,0.0,77,0.00,,---,0.00,0.00,VWS V14.01,2013-10-28 02:01:00,
2013-10-27 21:06:00,38.3,31.4,29.97,SW,219,0.0,0.0,76,0.00,,---,0.00,0.00,VWS V14.01,2013-10-28 02:06:00,
2013-10-27 21:11:00,38.0,31.4,29.97,SW,219,0.0,1.0,77,0.00,,---,0.00,0.00,VWS V14.01,2013-10-28 02:11:00,
2013-10-27 21:16:00,38.0,31.8,29.97,SW,219,0.0,1.0,78,0.00,,---,0.00,0.00,VWS V14.01,2013-10-28 02:16:00,
2013-10-27 21:21:00,37.5,31.3,29.98,SW,219,0.0,1.0,78,0.00,,---,0.00,0.00,VWS V14.01,2013-10-28 02:21:00,
2013-10-27 21:26:00,37.6,31.7,29.98,SW,219,0.0,1.0,79,0.00,,---,0.00,0.00,VWS V14.01,2013-10-28 02:26:00,
2013-10-27 21:31:00,37.4,31.5,29.98,SW,219,0.0,1.0,79,0.00,,---,0.00,0.00,VWS V14.01,2013-10-28 02:31:00,
2013-10-27 21:36:00,36.8,31.8,29.98,SW,219,0.0,1.0,82,0.00,,---,0.00,0.00,VWS V14.01,2013-10-28 02:36:00,
2013-10-27 21:41:00,36.6,31.3,29.98,SW,219,0.0,1.0,81,0.00,,---,0.00,0.00,VWS V14.01,2013-10-28 02:41:00,
2013-10-27 21:46:00,36.8,31.8,29.98,SW,219,1.0,1.0,82,0.00,,---,0.00,0.00,VWS V14.01,2013-10-28 02:46:00,
2013-10-27 21:51:00,36.9,31.9,29.99,SW,219,0.0,1.0,82,0.00,,---,0.00,0.00,VWS V14.01,2013-10-28 02:51:00,
2013-10-27 21:56:00,37.0,32.0,29.99,SW,219,0.0,1.0,82,0.00,,---,0.00,0.00,VWS V14.01,2013-10-28 02:56:00,
2013-10-27 22:00:00,37.0,32.0,29.99,SW,219,1.0,1.0,82,0.00,,---,0.00,0.00,VWS V14.01,2013-10-28 03:00:00,
2013-10-27 22:01:00,37.0,32.0,29.99,SW,219,1.0,1.0,82,0.00,,---,0.00,0.00,VWS V14.01,2013-10-28 03:01:00,
2013-10-27 22:06:00,36.9,31.9,29.99,SW,219,0.0,1.0,82,0.00,,---,0.00,0.00,VWS V14.01,2013-10-28 03:06:00,
2013-10-27 22:11:00,37.1,32.1,29.99,SW,219,0.0,1.0,82,0.00,,---,0.00,0.00,VWS V14.01,2013-10-28 03:11:00,
2013-10-27 22:16:00,36.9,31.9,29.99,SW,219,0.0,1.0,82,0.00,,---,0.00,0.00,VWS V14.01,2013-10-28 03:16:00,
2013-10-27 22:21:00,36.3,31.6,29.99,SW,219,1.0,1.0,83,0.00,,---,0.00,0.00,VWS V14.01,2013-10-28 03:21:00,
2013-10-27 22:26:00,35.7,31.0,29.99,SW,219,0.0,1.0,83,0.00,,---,0.00,0.00,VWS V14.01,2013-10-28 03:26:00,
2013-10-27 22:31:00,35.2,31.1,30.00,SW,219,0.0,1.0,85,0.00,,---,0.00,0.00,VWS V14.01,2013-10-28 03:31:00,
2013-10-27 22:36:00,35.6,31.8,30.00,SW,219,0.0,1.0,86,0.00,,---,0.00,0.00,VWS V14.01,2013-10-28 03:36:00,
2013-10-27 22:41:00,34.9,30.9,30.00,SW,219,1.0,1.0,85,0.00,,---,0.00,0.00,VWS V14.01,2013-10-28 03:41:00,
2013-10-27 22:46:00,34.3,30.3,30.00,SW,219,0.0,1.0,85,0.00,,---,0.00,0.00,VWS V14.01,2013-10-28 03:46:00,
2013-10-27 22:51:00,34.3,30.6,30.00,SW,219,0.0,1.0,86,0.00,,---,0.00,0.00,VWS V14.01,2013-10-28 03:51:00,
2013-10-27 22:56:00,34.4,30.6,30.00,SW,219,0.0,1.0,86,0.00,,---,0.00,0.00,VWS V14.01,2013-10-28 03:56:00,
2013-10-27 23:00:00,34.3,30.3,30.00,SW,219,1.0,1.0,85,0.00,,---,0.00,0.00,VWS V14.01,2013-10-28 04:00:00,
2013-10-27 23:01:00,34.0,30.0,30.00,SW,219,1.0,1.0,85,0.00,,---,0.00,0.00,VWS V14.01,2013-10-28 04:01:00,
2013-10-27 23:06:00,34.9,31.1,30.02,North,355,0.0,9.0,86,0.00,,---,0.00,0.00,VWS V14.01,2013-10-28 04:06:00,
2013-10-27 23:11:00,36.4,31.7,30.02,North,360,0.0,9.0,83,0.00,,---,0.00,0.00,VWS V14.01,2013-10-28 04:11:00,
2013-10-27 23:16:00,37.0,31.4,30.02,NNW,345,0.0,9.0,80,0.00,,---,0.00,0.00,VWS V14.01,2013-10-28 04:16:00,
2013-10-27 23:21:00,35.9,30.6,30.02,NNW,345,0.0,9.0,81,0.00,,---,0.00,0.00,VWS V14.01,2013-10-28 04:21:00,
2013-10-27 23:26:00,35.6,31.0,30.02,NNW,345,1.0,9.0,83,0.00,,---,0.00,0.00,VWS V14.01,2013-10-28 04:26:00,
2013-10-27 23:31:00,35.6,31.0,30.03,NNW,345,0.0,9.0,83,0.00,,---,0.00,0.00,VWS V14.01,2013-10-28 04:31:00,
2013-10-27 23:36:00,36.0,31.4,30.03,NNW,345,0.0,9.0,83,0.00,,---,0.00,0.00,VWS V14.01,2013-10-28 04:36:00,
2013-10-27 23:41:00,36.0,31.4,30.04,NNW,345,0.0,9.0,83,0.00,,---,0.00,0.00,VWS V14.01,2013-10-28 04:41:00,
2013-10-27 23:46:00,35.7,31.0,30.04,NNW,345,0.0,9.0,83,0.00,,---,0.00,0.00,VWS V14.01,2013-10-28 04:46:00,
2013-10-27 23:51:00,35.6,31.0,30.05,NNW,345,0.0,9.0,83,0.00,,---,0.00,0.00,VWS V14.01,2013-10-28 04:51:00,
2013-10-27 23:56:00,35.5,31.1,30.05,NNW,345,0.0,9.0,84,0.00,,---,0.00,0.00,VWS V14.01,2013-10-28 04:56:00,